When you browse on this site, cookies collect data to enhance your experience and personalize the content and advertising you see.
Visit our Privacy Policy to learn more. By continuing to use the site, you agree to this use of cookies and data.
  • In Belgien
  • Länderverzeichnis
  • Für 7 Tage
  • Wassertemperatur
  • Satellitenkarten
  • Wetterkarte
  • Widgets
  • user-avatar
    Anmelden

    Stündliche Wetter Staryj Oskol

    Heute, 21 Januar, Montag

    Zeit Temperatur Niederschläge Wind Luftdruck Luftfeuchtigkeit
    00:00 -12°C° 0 mm 4 m/S 743 mmHg 93%
    01:00 -10°C° 0.1 mm 3 m/S 743 mmHg 94%
    02:00 -10°C° 0.1 mm 3 m/S 743 mmHg 95%
    03:00 -10°C° 0 mm 3 m/S 742 mmHg 96%
    04:00 -10°C° 0.3 mm 3 m/S 742 mmHg 96%
    05:00 -8°C° 0.3 mm 2 m/S 741 mmHg 96%
    06:00 -8°C° 0.3 mm 2 m/S 741 mmHg 97%
    07:00 -8°C° 0.3 mm 2 m/S 740 mmHg 97%
    08:00 -8°C° 0.3 mm 2 m/S 740 mmHg 97%
    09:00 -8°C° 0 mm 2 m/S 740 mmHg 97%
    10:00 -9°C° 0.1 mm 3 m/S 740 mmHg 96%
    11:00 -8°C° 0.1 mm 3 m/S 740 mmHg 94%
    12:00 -8°C° 0.1 mm 3 m/S 739 mmHg 93%
    13:00 -9°C° 0 mm 4 m/S 739 mmHg 92%
    14:00 -9°C° 0 mm 4 m/S 739 mmHg 91%
    15:00 -9°C° 0 mm 4 m/S 739 mmHg 90%
    16:00 -9°C° 0 mm 4 m/S 740 mmHg 90%
    17:00 -10°C° 0 mm 4 m/S 740 mmHg 90%
    18:00 -10°C° 0 mm 4 m/S 741 mmHg 89%
    19:00 -11°C° 0 mm 4 m/S 741 mmHg 90%
    20:00 -12°C° 0 mm 4 m/S 741 mmHg 91%
    21:00 -13°C° 0 mm 3 m/S 741 mmHg 91%
    22:00 -14°C° 0 mm 3 m/S 742 mmHg 93%
    23:00 -15°C° 0 mm 3 m/S 742 mmHg 94%

    Morgen, 22 Januar, Dienstag

    Zeit Temperatur Niederschläge Wind Luftdruck Luftfeuchtigkeit
    00:00 -16°C° 0 mm 3 m/S 742 mmHg 95%
    01:00 -16°C° 0 mm 3 m/S 742 mmHg 96%
    02:00 -16°C° 0 mm 3 m/S 743 mmHg 96%
    03:00 -16°C° 0 mm 3 m/S 743 mmHg 97%
    04:00 -16°C° 0 mm 3 m/S 743 mmHg 96%
    05:00 -15°C° 0 mm 3 m/S 743 mmHg 96%
    06:00 -14°C° 0 mm 3 m/S 743 mmHg 95%
    07:00 -15°C° 0 mm 3 m/S 744 mmHg 95%
    08:00 -16°C° 0 mm 3 m/S 744 mmHg 95%
    09:00 -17°C° 0 mm 3 m/S 744 mmHg 96%
    10:00 -15°C° 0 mm 3 m/S 744 mmHg 95%
    11:00 -14°C° 0 mm 3 m/S 745 mmHg 95%
    12:00 -13°C° 0 mm 3 m/S 745 mmHg 94%
    13:00 -12°C° 0 mm 3 m/S 745 mmHg 93%
    14:00 -10°C° 0 mm 3 m/S 745 mmHg 91%
    15:00 -10°C° 0 mm 3 m/S 745 mmHg 90%
    16:00 -10°C° 0 mm 2 m/S 746 mmHg 91%
    17:00 -10°C° 0 mm 2 m/S 746 mmHg 93%
    18:00 -10°C° 0 mm 1 m/S 746 mmHg 94%
    19:00 -11°C° 0 mm 1 m/S 746 mmHg 94%
    20:00 -11°C° 0 mm 1 m/S 746 mmHg 95%
    21:00 -12°C° 0 mm 0 m/S 746 mmHg 95%
    22:00 -12°C° 0 mm 0 m/S 746 mmHg 95%
    23:00 -12°C° 0 mm 0 m/S 746 mmHg 95%

    übermorgen, 23 Januar, Mittwoch

    Zeit Temperatur Niederschläge Wind Luftdruck Luftfeuchtigkeit
    00:00 -13°C° 0 mm 0 m/S 746 mmHg 95%
    01:00 -13°C° 0 mm 1 m/S 746 mmHg 95%
    02:00 -13°C° 0 mm 1 m/S 747 mmHg 96%
    03:00 -14°C° 0 mm 1 m/S 747 mmHg 96%
    04:00 -14°C° 0 mm 1 m/S 746 mmHg 96%
    05:00 -14°C° 0 mm 1 m/S 746 mmHg 97%
    06:00 -17°C° 0 mm 2 m/S 746 mmHg 97%
    07:00 -17°C° 0 mm 2 m/S 746 mmHg 97%
    08:00 -17°C° 0 mm 2 m/S 746 mmHg 98%
    09:00 -18°C° 0 mm 3 m/S 746 mmHg 98%
    10:00 -17°C° 0 mm 3 m/S 746 mmHg 97%
    11:00 -16°C° 0 mm 3 m/S 746 mmHg 97%
    12:00 -16°C° 0 mm 4 m/S 746 mmHg 96%
    13:00 -15°C° 0 mm 4 m/S 746 mmHg 96%
    14:00 -15°C° 0 mm 4 m/S 745 mmHg 95%
    15:00 -15°C° 0 mm 4 m/S 745 mmHg 95%
    16:00 -15°C° 0 mm 5 m/S 745 mmHg 95%
    17:00 -15°C° 0 mm 5 m/S 744 mmHg 95%
    18:00 -17°C° 0 mm 5 m/S 744 mmHg 95%
    19:00 -16°C° 0.1 mm 6 m/S 743 mmHg 94%
    20:00 -16°C° 0.1 mm 6 m/S 743 mmHg 94%
    21:00 -16°C° 0.1 mm 6 m/S 742 mmHg 93%
    22:00 -15°C° 0.7 mm 7 m/S 742 mmHg 94%
    23:00 -15°C° 0.7 mm 7 m/S 741 mmHg 94%

    24 Januar, Donnerstag

    Zeit Temperatur Niederschläge Wind Luftdruck Luftfeuchtigkeit
    00:00 -15°C° 0.7 mm 8 m/S 740 mmHg 95%
    01:00 -13°C° 1.1 mm 7 m/S 740 mmHg 94%
    02:00 -13°C° 1.1 mm 7 m/S 739 mmHg 94%
    03:00 -12°C° 1.1 mm 7 m/S 738 mmHg 94%
    04:00 -11°C° 0.4 mm 7 m/S 738 mmHg 94%
    05:00 -9°C° 0.4 mm 6 m/S 737 mmHg 93%
    06:00 -8°C° 0.4 mm 6 m/S 736 mmHg 93%
    07:00 -6°C° 0.2 mm 6 m/S 736 mmHg 94%
    08:00 -4°C° 0.2 mm 6 m/S 736 mmHg 94%
    09:00 -2°C° 0.2 mm 5 m/S 737 mmHg 95%
    10:00 -2°C° 0.1 mm 5 m/S 737 mmHg 96%
    11:00 -1°C° 0.1 mm 5 m/S 737 mmHg 98%
    12:00 -1°C° 0.1 mm 4 m/S 737 mmHg 99%
    13:00 0°C° 0 mm 3 m/S 737 mmHg 99%
    14:00 0°C° 0 mm 3 m/S 737 mmHg 99%
    15:00 +1°C° 0 mm 2 m/S 737 mmHg 99%
    16:00 +1°C° 0 mm 2 m/S 737 mmHg 99%
    17:00 +1°C° 0 mm 2 m/S 738 mmHg 99%
    18:00 +1°C° 0 mm 1 m/S 738 mmHg 98%
    19:00 +1°C° 0 mm 1 m/S 738 mmHg 97%
    20:00 0°C° 0 mm 0 m/S 738 mmHg 96%
    21:00 0°C° 0 mm 0 m/S 739 mmHg 95%
    22:00 0°C° 0.1 mm 0 m/S 739 mmHg 96%
    23:00 +1°C° 0.1 mm 1 m/S 739 mmHg 96%

    25 Januar, Freitag

    Zeit Temperatur Niederschläge Wind Luftdruck Luftfeuchtigkeit
    00:00 -1°C° 0.1 mm 2 m/S 739 mmHg 96%
    01:00 -1°C° 0.4 mm 2 m/S 739 mmHg 97%
    02:00 -1°C° 0.4 mm 3 m/S 739 mmHg 97%
    03:00 -1°C° 0.4 mm 3 m/S 739 mmHg 97%
    04:00 -1°C° 0.6 mm 3 m/S 739 mmHg 97%
    05:00 -2°C° 0.6 mm 4 m/S 738 mmHg 97%
    06:00 -2°C° 0.6 mm 4 m/S 738 mmHg 97%
    07:00 -2°C° 0.4 mm 4 m/S 738 mmHg 97%
    08:00 -2°C° 0.4 mm 4 m/S 738 mmHg 96%
    09:00 -2°C° 0.4 mm 4 m/S 738 mmHg 96%
    10:00 -2°C° 0.1 mm 4 m/S 737 mmHg 97%
    11:00 -2°C° 0.1 mm 4 m/S 737 mmHg 98%
    12:00 -2°C° 0.1 mm 4 m/S 737 mmHg 99%
    13:00 -1°C° 0.1 mm 3 m/S 736 mmHg 99%
    14:00 -1°C° 0.1 mm 3 m/S 736 mmHg 99%
    15:00 -1°C° 0.1 mm 3 m/S 736 mmHg 99%
    16:00 -1°C° 0 mm 3 m/S 735 mmHg 98%
    17:00 -1°C° 0 mm 3 m/S 735 mmHg 97%
    18:00 -1°C° 0 mm 3 m/S 735 mmHg 95%
    19:00 -1°C° 0 mm 3 m/S 735 mmHg 95%
    20:00 -2°C° 0 mm 4 m/S 735 mmHg 95%
    21:00 -2°C° 0 mm 4 m/S 736 mmHg 96%
    22:00 -3°C° 0 mm 4 m/S 736 mmHg 95%
    23:00 -4°C° 0 mm 4 m/S 736 mmHg 95%

    26 Januar, Samstag

    Zeit Temperatur Niederschläge Wind Luftdruck Luftfeuchtigkeit
    00:00 -5°C° 0 mm 4 m/S 736 mmHg 95%
    01:00 -6°C° 0 mm 3 m/S 736 mmHg 95%
    02:00 -8°C° 0 mm 3 m/S 736 mmHg 96%
    03:00 -9°C° 0 mm 3 m/S 736 mmHg 96%
    04:00 -9°C° 0 mm 3 m/S 736 mmHg 96%
    05:00 -10°C° 0 mm 3 m/S 736 mmHg 96%
    06:00 -10°C° 0 mm 3 m/S 736 mmHg 96%
    07:00 -10°C° 0 mm 3 m/S 736 mmHg 96%
    08:00 -12°C° 0 mm 3 m/S 737 mmHg 96%
    09:00 -12°C° 0 mm 3 m/S 737 mmHg 96%
    10:00 -12°C° 0 mm 3 m/S 737 mmHg 96%
    11:00 -10°C° 0 mm 3 m/S 736 mmHg 96%
    12:00 -9°C° 0 mm 2 m/S 736 mmHg 95%
    13:00 -9°C° 0 mm 2 m/S 736 mmHg 95%
    14:00 -10°C° 0 mm 3 m/S 736 mmHg 95%
    15:00 -10°C° 0 mm 3 m/S 736 mmHg 95%
    16:00 -10°C° 0 mm 3 m/S 736 mmHg 95%
    17:00 -12°C° 0 mm 3 m/S 736 mmHg 95%
    18:00 -13°C° 0 mm 3 m/S 736 mmHg 96%
    19:00 -13°C° 0.1 mm 3 m/S 736 mmHg 96%
    20:00 -14°C° 0.1 mm 3 m/S 736 mmHg 96%
    21:00 -14°C° 0.1 mm 3 m/S 736 mmHg 96%
    22:00 -15°C° 0 mm 3 m/S 736 mmHg 96%
    23:00 -15°C° 0 mm 3 m/S 736 mmHg 96%
    Mehr zeigen